GFSNIL_prec_precacc24_198.txt.gz
Total_Precipitation_Accumulation
0.00 0.01 0.05 0.17 0.13 0.09 0.00 0.00 0.03 0.03 0.05 0.06 0.08 0.02 0.02 0.01 0.04 0.03 0.03 0.02 0.00 0.00
0.00 0.00 0.01 0.05 0.04 0.02 0.01 0.02 0.04 0.04 0.02 0.05 0.05 0.09 0.05 0.04 0.07 0.04 0.10 0.07 0.01 0.01
0.00 0.00 0.01 0.03 0.00 0.00 0.00 0.03 0.02 0.03 0.05 0.05 0.07 0.05 0.07 0.07 0.19 0.11 0.15 0.05 0.12 0.14
0.00 0.00 0.00 0.00 0.00 0.00 0.01 0.06 0.04 0.06 0.09 0.13 0.09 0.07 0.09 0.22 0.21 0.18 0.34 0.14 0.23 0.22
0.00 0.00 0.00 0.00 0.00 0.00 0.00 0.01 0.03 0.05 0.07 0.13 0.11 0.13 0.12 0.09 0.11 0.08 0.18 0.24 0.33 0.14
0.00 0.00 0.00 0.00 0.00 0.00 0.00 0.00 0.00 0.01 0.02 0.03 0.07 0.06 0.04 0.05 0.06 0.03 0.06 0.17 0.24 0.16
0.00 0.00 0.00 0.00 0.00 0.00 0.00 0.00 0.00 0.00 0.00 0.01 0.02 0.03 0.02 0.01 0.01 0.00 0.01 0.03 0.11 0.12
0.00 0.00 0.00 0.00 0.00 0.00 0.00 0.00 0.00 0.00 0.00 0.00 0.00 0.00 0.01 0.01 0.03 0.09 0.07 0.04 0.06 0.06
0.00 0.00 0.00 0.00 0.00 0.00 0.00 0.00 0.00 0.00 0.00 0.00 0.02 0.08 0.11 0.16 0.16 0.19 0.16 0.15 0.18 0.15
0.00 0.00 0.00 0.00 0.00 0.00 0.00 0.00 0.00 0.00 0.00 0.09 0.41 0.24 0.23 0.34 0.36 0.37 0.32 0.23 0.16 0.10
0.00 0.00 0.00 0.00 0.00 0.00 0.00 0.00 0.01 0.01 0.09 0.62 0.45 0.71 0.80 0.61 0.46 0.42 0.31 0.16 0.08 0.06
0.00 0.00 0.01 0.01 0.01 0.01 0.06 0.05 0.12 0.22 0.66 1.08 1.30 1.24 1.07 0.63 0.42 0.34 0.23 0.16 0.16 0.15
0.01 0.02 0.03 0.07 0.11 0.18 0.27 0.49 0.95 1.37 1.38 1.38 1.36 1.62 1.36 0.64 0.31 0.35 0.46 0.25 0.19 0.28
0.03 0.06 0.12 0.07 0.13 0.19 0.51 0.65 0.68 0.79 0.67 0.86 0.66 0.38 0.25 0.26 0.15 0.18 0.17 0.15 0.11 0.04

GFSNIL_prec_precacc24_201.txt.gz
Total_Precipitation_Accumulation
0.00 0.01 0.05 0.17 0.13 0.08 0.01 0.00 0.02 0.03 0.06 0.09 0.10 0.04 0.03 0.02 0.05 0.03 0.03 0.02 0.00 0.00
0.00 0.00 0.01 0.05 0.04 0.02 0.01 0.02 0.06 0.06 0.05 0.05 0.07 0.12 0.07 0.05 0.07 0.03 0.10 0.07 0.01 0.01
0.00 0.00 0.01 0.03 0.00 0.00 0.00 0.03 0.03 0.02 0.02 0.04 0.07 0.08 0.08 0.07 0.20 0.11 0.15 0.05 0.08 0.11
0.00 0.00 0.00 0.00 0.00 0.00 0.01 0.06 0.05 0.06 0.08 0.11 0.06 0.06 0.11 0.22 0.22 0.19 0.34 0.14 0.23 0.21
0.00 0.00 0.00 0.00 0.00 0.00 0.00 0.01 0.03 0.05 0.07 0.14 0.11 0.12 0.11 0.09 0.11 0.08 0.17 0.24 0.33 0.14
0.00 0.00 0.00 0.00 0.00 0.00 0.00 0.00 0.00 0.01 0.02 0.03 0.07 0.07 0.04 0.05 0.06 0.04 0.06 0.16 0.24 0.16
0.00 0.00 0.00 0.00 0.00 0.00 0.00 0.00 0.00 0.00 0.00 0.01 0.05 0.06 0.03 0.01 0.01 0.00 0.01 0.03 0.11 0.12
0.00 0.00 0.00 0.00 0.00 0.00 0.00 0.00 0.00 0.00 0.00 0.00 0.01 0.01 0.02 0.04 0.02 0.05 0.04 0.04 0.06 0.06
0.00 0.00 0.00 0.00 0.00 0.00 0.00 0.00 0.00 0.00 0.00 0.00 0.00 0.00 0.01 0.02 0.05 0.12 0.14 0.15 0.18 0.15
0.00 0.00 0.00 0.00 0.00 0.00 0.00 0.00 0.00 0.00 0.00 0.01 0.03 0.01 0.08 0.19 0.32 0.36 0.32 0.23 0.16 0.10
0.00 0.00 0.00 0.01 0.01 0.01 0.00 0.00 0.00 0.00 0.05 0.26 0.29 0.55 0.70 0.58 0.43 0.39 0.29 0.15 0.09 0.07
0.05 0.02 0.02 0.02 0.02 0.02 0.04 0.02 0.07 0.14 0.54 0.77 0.93 1.07 1.01 0.62 0.41 0.34 0.23 0.16 0.16 0.15
0.09 0.13 0.06 0.05 0.05 0.06 0.15 0.25 0.44 0.71 0.86 1.09 1.29 1.55 1.33 0.64 0.31 0.35 0.46 0.25 0.19 0.28
0.09 0.08 0.07 0.06 0.11 0.19 0.49 0.53 0.63 0.90 0.75 0.79 0.69 0.43 0.30 0.37 0.21 0.20 0.17 0.15 0.11 0.04

GFSNIL_prec_precacc24_207.txt.gz
Total_Precipitation_Accumulation
0.00 0.01 0.05 0.17 0.13 0.08 0.01 0.00 0.02 0.03 0.08 0.10 0.10 0.04 0.04 0.02 0.05 0.03 0.03 0.02 0.00 0.00
0.00 0.00 0.01 0.05 0.04 0.02 0.01 0.01 0.08 0.09 0.09 0.11 0.10 0.11 0.06 0.05 0.07 0.04 0.10 0.07 0.01 0.01
0.00 0.00 0.01 0.03 0.00 0.00 0.00 0.08 0.15 0.18 0.08 0.18 0.14 0.11 0.09 0.07 0.20 0.12 0.15 0.05 0.08 0.11
0.00 0.00 0.00 0.00 0.00 0.00 0.01 0.09 0.09 0.12 0.17 0.25 0.28 0.24 0.21 0.23 0.22 0.19 0.34 0.14 0.23 0.21
0.00 0.00 0.00 0.00 0.00 0.00 0.00 0.01 0.05 0.07 0.10 0.21 0.22 0.27 0.18 0.09 0.09 0.08 0.16 0.20 0.31 0.14
0.00 0.00 0.00 0.00 0.00 0.00 0.00 0.01 0.04 0.02 0.02 0.04 0.10 0.13 0.10 0.07 0.05 0.04 0.06 0.13 0.22 0.16
0.11 0.06 0.00 0.00 0.00 0.00 0.00 0.00 0.00 0.00 0.00 0.02 0.09 0.09 0.04 0.01 0.01 0.00 0.01 0.03 0.11 0.12
0.13 0.10 0.03 0.01 0.00 0.00 0.00 0.00 0.00 0.00 0.00 0.00 0.01 0.01 0.02 0.04 0.02 0.05 0.04 0.04 0.06 0.02
0.14 0.07 0.04 0.04 0.04 0.00 0.00 0.00 0.00 0.00 0.00 0.00 0.00 0.00 0.02 0.07 0.12 0.17 0.15 0.11 0.08 0.04
0.14 0.15 0.08 0.11 0.07 0.01 0.00 0.02 0.00 0.00 0.00 0.00 0.00 0.00 0.01 0.03 0.05 0.08 0.08 0.07 0.08 0.08
0.18 0.13 0.15 0.16 0.09 0.06 0.01 0.00 0.04 0.02 0.00 0.00 0.00 0.00 0.02 0.01 0.01 0.03 0.03 0.01 0.03 0.05
0.32 0.23 0.20 0.18 0.11 0.10 0.11 0.03 0.05 0.11 0.07 0.10 0.10 0.05 0.14 0.07 0.07 0.04 0.01 0.04 0.12 0.13
0.69 0.67 0.50 0.38 0.27 0.25 0.23 0.18 0.23 0.43 0.71 0.87 0.51 0.37 0.34 0.25 0.18 0.15 0.19 0.13 0.16 0.26
1.35 1.29 1.00 0.93 0.80 0.75 0.71 0.62 0.80 1.21 1.22 0.92 0.93 0.93 0.76 0.69 0.40 0.30 0.24 0.16 0.10 0.04

GFSNIL_prec_precacc24_210.txt.gz
Total_Precipitation_Accumulation
0.00 0.01 0.05 0.19 0.20 0.09 0.01 0.00 0.02 0.03 0.13 0.17 0.12 0.05 0.08 0.03 0.05 0.03 0.03 0.02 0.00 0.00
0.00 0.00 0.01 0.16 0.16 0.05 0.03 0.01 0.08 0.11 0.10 0.22 0.16 0.12 0.05 0.01 0.05 0.03 0.10 0.07 0.01 0.01
0.02 0.01 0.01 0.06 0.02 0.06 0.03 0.09 0.16 0.27 0.13 0.20 0.16 0.16 0.12 0.02 0.06 0.08 0.14 0.05 0.08 0.11
0.01 0.01 0.00 0.00 0.01 0.01 0.02 0.09 0.10 0.13 0.19 0.25 0.30 0.34 0.40 0.18 0.19 0.16 0.26 0.12 0.22 0.20
0.01 0.00 0.00 0.00 0.01 0.02 0.01 0.03 0.06 0.11 0.17 0.28 0.30 0.45 0.34 0.24 0.21 0.14 0.16 0.16 0.29 0.12
0.01 0.00 0.00 0.00 0.00 0.01 0.01 0.02 0.06 0.03 0.02 0.03 0.08 0.16 0.27 0.18 0.07 0.05 0.06 0.12 0.18 0.17
0.22 0.18 0.02 0.00 0.00 0.00 0.00 0.00 0.00 0.00 0.00 0.02 0.09 0.08 0.07 0.11 0.09 0.06 0.03 0.03 0.11 0.16
0.21 0.21 0.13 0.03 0.01 0.07 0.02 0.00 0.00 0.00 0.00 0.01 0.02 0.02 0.02 0.05 0.04 0.05 0.04 0.04 0.06 0.04
0.17 0.08 0.07 0.06 0.05 0.01 0.00 0.00 0.00 0.00 0.00 0.00 0.00 0.00 0.03 0.09 0.16 0.19 0.19 0.16 0.11 0.04
0.14 0.15 0.09 0.12 0.08 0.01 0.01 0.03 0.00 0.00 0.00 0.00 0.00 0.00 0.00 0.02 0.03 0.07 0.07 0.06 0.04 0.03
0.18 0.13 0.15 0.16 0.09 0.06 0.04 0.02 0.07 0.03 0.01 0.00 0.00 0.00 0.00 0.00 0.00 0.00 0.00 0.01 0.01 0.01
0.32 0.23 0.20 0.18 0.11 0.11 0.18 0.09 0.07 0.15 0.11 0.14 0.13 0.05 0.03 0.02 0.03 0.03 0.00 0.00 0.00 0.01
0.69 0.67 0.51 0.37 0.26 0.26 0.31 0.26 0.31 0.56 0.75 0.90 0.51 0.26 0.13 0.12 0.11 0.14 0.19 0.04 0.02 0.04
1.36 1.30 1.00 0.94 0.81 0.88 0.92 0.96 1.08 1.40 1.25 1.00 0.95 0.93 0.79 0.71 0.40 0.30 0.24 0.14 0.07 0.02

GFSNIL_prec_precacc24_216.txt.gz
Total_Precipitation_Accumulation
0.00 0.02 0.10 0.22 0.24 0.06 0.01 0.02 0.02 0.06 0.26 0.21 0.29 0.26 0.27 0.24 0.13 0.02 0.02 0.01 0.00 0.00
0.01 0.02 0.03 0.19 0.26 0.06 0.04 0.01 0.08 0.21 0.33 0.31 0.23 0.25 0.24 0.14 0.12 0.14 0.09 0.03 0.01 0.00
0.04 0.02 0.01 0.08 0.05 0.07 0.05 0.10 0.23 0.37 0.29 0.31 0.25 0.33 0.35 0.15 0.17 0.22 0.08 0.01 0.05 0.08
0.01 0.01 0.00 0.00 0.03 0.03 0.03 0.10 0.14 0.35 0.38 0.39 0.45 0.46 0.61 0.42 0.47 0.41 0.29 0.13 0.22 0.20
0.01 0.00 0.00 0.00 0.01 0.02 0.02 0.04 0.08 0.14 0.25 0.36 0.41 0.55 0.57 0.40 0.32 0.29 0.21 0.17 0.32 0.14
0.11 0.05 0.02 0.00 0.00 0.01 0.01 0.02 0.07 0.05 0.02 0.03 0.08 0.17 0.32 0.26 0.11 0.15 0.18 0.16 0.21 0.19
0.27 0.21 0.05 0.03 0.03 0.02 0.01 0.00 0.00 0.00 0.00 0.02 0.09 0.08 0.09 0.17 0.14 0.06 0.02 0.05 0.15 0.20
0.23 0.22 0.15 0.07 0.05 0.09 0.04 0.01 0.00 0.00 0.00 0.01 0.03 0.02 0.02 0.06 0.06 0.07 0.04 0.05 0.07 0.05
0.17 0.08 0.07 0.07 0.08 0.02 0.01 0.00 0.00 0.00 0.00 0.00 0.00 0.00 0.03 0.10 0.17 0.22 0.24 0.17 0.12 0.04
0.14 0.15 0.09 0.13 0.08 0.03 0.02 0.03 0.01 0.00 0.00 0.00 0.00 0.00 0.00 0.02 0.04 0.08 0.09 0.11 0.07 0.03
0.18 0.13 0.15 0.16 0.09 0.06 0.04 0.02 0.07 0.03 0.01 0.01 0.00 0.00 0.00 0.03 0.01 0.00 0.01 0.02 0.03 0.02
0.32 0.23 0.20 0.19 0.11 0.11 0.19 0.09 0.07 0.16 0.11 0.14 0.14 0.05 0.03 0.05 0.01 0.00 0.00 0.00 0.01 0.02
0.69 0.67 0.51 0.37 0.26 0.25 0.31 0.27 0.33 0.57 0.77 0.92 0.51 0.26 0.11 0.07 0.04 0.01 0.00 0.00 0.02 0.02
1.36 1.29 1.00 0.94 0.81 0.88 0.92 0.97 1.09 1.42 1.27 1.04 1.01 0.97 0.78 0.61 0.32 0.14 0.12 0.09 0.05 0.02